STARLINK-11287 [DTC]

Last updated on Fri Oct 04 2024 00:02:04 GMT+0000 (Coordinated Universal Time)

1 60998U 24158J 24277.44483719 -.00012396 00000+0 -71952-4 0 9994 2 60998 53.1571 336.2141 0001440 97.5124 262.6060 15.76694534 5550
UTC large
Height (km)
Speed (km/s)
/
Latitude / Longitude
Inclination (degrees)
Orbital Period (minutes)
Azimuth
Elevation
Range (km)
Doppler Factor

Next 0 passes for location: London (51.5072 / 0.1276)

Sorry there are no passes over London.